Location: Derby
(52.9213°N, 1.4761°W)
Time: 19:29:12
(UTC+01:00)

Tiros 1 - Pass Details

Date: 19 May 2025
Orbit: 620 x 651 km, 48.4° (Epoch: 13 June)

Event Time Altitude Azimuth Distance (km) Brightness Sun altitude
Rises 18:13:09 0° 203° (SSW) 2,885 10.7 23.1°
Reaches altitude 10° 18:16:12 10° 182° (S) 1,986 9.7 22.7°
Maximum altitude 18:18:59 16° 144° (SE) 1,629 9.0 22.3°
Drops below altitude 10° 18:21:47 10° 106° (ESE) 2,002 9.2 21.8°
Sets 18:24:52 0° 85° (E) 2,919 9.9 21.4°
